Regional Weather Roundup
Issued by NWS

Home | Current Version | Previous Version | Graphics & Text | Print | Product List | Glossary Off
Versions: 1 2 3 4 5 6 7 8 9 10 11 12 13 14 15 16 17 18 19 20 21 22 23 24 25 26 27 28 29 30 31 32 33 34 35 36 37 38 39 40 41 42 43 44 45 46 47 48 49 50

000
ASUS43 KDMX 030407
RWRIA

WEATHER ROUNDUP FOR IOWA
NATIONAL WEATHER SERVICE DES MOINES IA
1100 PM CDT SAT MAY 02 2015

NOTE: "FAIR" INDICATES FEW OR NO CLOUDS BELOW 12,000 FEET WITH NO
SIGNIFICANT WEATHER AND/OR OBSTRUCTIONS TO VISIBILITY.

* - THESE STATIONS ARE NOT NWS STATIONS...THUS NOT UNDER NWS
QUALITY CONTROL.  THEY ALSO DO NOT REPORT WEATHER SUCH
AS PRECIPITATION OR FOG.

IAZ001>003-012>014-020>022-031>034-043>046-030500-
   NORTHWEST IOWA

CITY           SKY/WX    TMP DP  RH WIND       PRES   REMARKS
CARROLL *      MOCLDY    59  52  77 SE8       29.81S
CHEROKEE *     MOCLDY    63  54  72 SE7       29.79S
DENISON *      PTCLDY    63  57  82 S17G23    29.77S
LE MARS *      CLEAR     64  55  72 SE13      29.76S
ORANGE CITY *  CLEAR     63  54  72 SE10      29.77S
SHELDON *      PTCLDY    63  57  82 SE13G18   29.76F
SIOUX CITY     MOCLDY    64  54  69 SE10      29.75R
SPENCER        MOCLDY    61  53  75 S14       29.79F
STORM LAKE *   MOCLDY    59  52  77 SE12G18   29.81S
$$

IAZ055>058-069>071-079>083-090>094-030500-
   SOUTHWEST IOWA

CITY           SKY/WX    TMP DP  RH WIND       PRES   REMARKS
ATLANTIC *     CLEAR     63  55  77 S13G21    29.82S
AUDUBON *      CLEAR     61  54  77 S13       29.82F
CLARINDA *     CLEAR     64  55  72 S10       29.86S
COUNCIL BLFS * CLEAR     64  57  77 S13       29.80R
CRESTON *      CLEAR     59  55  88 S13       29.86F
HARLAN  *      CLEAR     63  59  88 S13       29.84R
LAMONI         CLEAR     59  54  83 S12G21    29.89F
RED OAK *      PTCLDY    64  55  72 S13       29.83R
SHENANDOAH *   CLEAR     66  55  68 S18       29.83R
$$

IAZ047>049-059>061-072>074-084-030500-
   CENTRAL IOWA

CITY           SKY/WX    TMP DP  RH WIND       PRES   REMARKS
AMES             N/A     59  52  77 S12       29.85F
ANKENY *       MOCLDY    59  54  82 S14       29.86F
CHARITON *     PTCLDY    57  52  82 S15       29.89F
DES MOINES     PTCLDY    59  52  77 S12       29.87F
GRINNELL*      MOCLDY    59  52  77 S14       29.90S
KNOXVILLE *    PTCLDY    59  50  72 S12       29.88S
MARSHALLTOWN   PTCLDY    58  51  78 S10       29.87F
PELLA *        PTCLDY    57  57 100 S12G18    29.90F
PERRY *        MOCLDY    59  52  77 S13       29.84F
$$

IAZ004>006-015-016-023>025-035-036-030500-
   NORTH CENTRAL IOWA

CITY           SKY/WX    TMP DP  RH WIND       PRES   REMARKS
ALGONA *       CLEAR     61  52  72 S15       29.83F
CLARION *      CLEAR     57  52  82 S9        29.86S
ESTHERVILLE    CLEAR     60  50  69 S21       29.80S
FORT DODGE *   PTCLDY    61  52  72 S8        29.85F
MASON CITY     CLEAR     58  50  75 S12       29.87S
FOREST CITY *  CLEAR     57  50  77 S12       29.85S
IOWA FALLS *   CLOUDY    59  52  77 SE14      29.88S
$$

IAZ007>011-017>019-026>030-037>042-050>054-066-030500-
   NORTHEAST IOWA

CITY           SKY/WX    TMP DP  RH WIND       PRES   REMARKS
CEDAR RAPIDS   MOCLDY    61  54  77 S9        29.93S
CHARLES CITY * PTCLDY    59  52  77 S10       29.89S
CLINTON *        N/A     61  48  63 S6        29.98S
DECORAH *      CLEAR     61  50  67 S7G13     29.89R
DUBUQUE        CLEAR     57  49  74 S8        29.94S
MONTICELLO *   CLOUDY    61  54  77 S6        29.93S
OELWEIN *      CLOUDY    59  52  77 S12       29.92R
WATERLOO       CLOUDY    61  52  72 S13       29.89S
$$

IAZ064-065-067-068-078-030500-
   EAST CENTRAL IOWA

CITY           SKY/WX    TMP DP  RH WIND       PRES   REMARKS
DAVENPORT      PTCLDY    62  47  57 S8        29.96S
IOWA CITY      MOCLDY    61  53  75 SE6       29.94F
MT. PLEASANT * MOCLDY    54  52  94 E7        29.95F
MUSCATINE *    CLOUDY    63  52  67 SE9       29.93F
QUAD CITIES    CLOUDY    63  48  58 S5        29.95S
$$

IAZ062-063-075>077-085>089-095>099-030500-
   SOUTHEAST IOWA

CITY           SKY/WX    TMP DP  RH WIND       PRES   REMARKS
BURLINGTON     CLOUDY    60  50  69 SE3       29.96F
FAIRFIELD *    CLEAR     54  52  94 SE8       29.94F
FORT MADISON * MOCLDY    61  48  63 SE5       29.96F
KEOKUK *       CLOUDY    61  50  67 SE5       29.95S
OSKALOOSA *      N/A     55  54  94 SE12      29.92F
CENTERVILLE *  CLEAR     54  54 100 SE8       29.94S
OTTUMWA        CLOUDY    57  53  86 SE9       29.92F
WASHINGTON *   MOCLDY    59  59 100 S10       29.93F
$$

ABBREVIATIONS USED IN REMARKS
   TC - TEMPERATURES IN CELSIUS
  WCI - WIND CHILL INDEX
   HX - HEAT INDEX
  VSB - VISIBILITY
$$



USA.gov is the U.S. government's official web portal to all federal, state and local government web resources and services.